sat.trackr.live / text

‹ back to catalog

STARLINK-31196

NORAD 58868 · 2024-019R

PAYLOAD ACTIVE UNKNOWN

§ Identity

Operator
Country
US
Launch date
2024-01-29
Launch site
AFETR
Launch vehicle
Mass (kg)
RCS (m²)

Purposes: comms

External: N2YO · Heavens-Above · Gunter

§ Orbital elements

Epoch: 2026-09-19T06:25:01.045344Z

Period
94.27 min
Inclination
43.0025°
Eccentricity
0.0001406
Mean motion
15.27574501 rev/d
Perigee alt
482.1 km
Apogee alt
484.0 km
Semi-major
6,861.2 km
B*
3.1381e-5
RAAN
236.0385°
Arg perigee
272.2255°
Mean anomaly
87.8436°
Rev number
14,866

§ Raw data

STARLINK-311961 58868U 24019R   26262.26737321  .00000601  00000+0  31381-4 0  99962 58868  43.0025 236.0385 0001406 272.2255  87.8436 15.27574501148662

JSON: /api/v1/satellites/58868 · /tle

For live sub-satellite position, see the globe view (requires WebGL).

§ Visibility from observer

Set your observer location to see the next 7 days of passes ≥ 10°. The values pass through the URL so the page stays shareable.

No JS? Fill the form by hand. The geolocation button needs JavaScript.